owner,sensor,date,latitude,longitude,vertical_datum,sea_water_practical_salinity,qcFlag 
SCCF RECON,ioos:station:SCCF:13:1,2017-05-01T00:00:00Z,26.5255,-82.0032,2.65,35.08,1111122 
SCCF RECON,ioos:station:SCCF:13:1,2017-05-01T01:00:00Z,26.5255,-82.0032,2.548,35.07,1111122 
SCCF RECON,ioos:station:SCCF:13:1,2017-05-01T02:00:00Z,26.5255,-82.0032,2.439,34.48,1111122 
SCCF RECON,ioos:station:SCCF:13:1,2017-05-01T03:00:00Z,26.5255,-82.0032,2.334,34.15,1111122 
SCCF RECON,ioos:station:SCCF:13:1,2017-05-01T04:00:00Z,26.5255,-82.0032,2.24,33.57,1111122 
SCCF RECON,ioos:station:SCCF:13:1,2017-05-01T05:00:00Z,26.5255,-82.0032,2.19,31.73,1111122 
SCCF RECON,ioos:station:SCCF:13:1,2017-05-01T06:00:00Z,26.5255,-82.0032,2.267,30.95,1111122 
SCCF RECON,ioos:station:SCCF:13:1,2017-05-01T07:00:00Z,26.5255,-82.0032,2.389,30.62,1111122 
SCCF RECON,ioos:station:SCCF:13:1,2017-05-01T08:00:00Z,26.5255,-82.0032,2.45,31.01,1111122 
SCCF RECON,ioos:station:SCCF:13:1,2017-05-01T09:00:00Z,26.5255,-82.0032,2.52,33.04,1111122 
SCCF RECON,ioos:station:SCCF:13:1,2017-05-01T10:00:00Z,26.5255,-82.0032,2.57,33.3,1111122 
SCCF RECON,ioos:station:SCCF:13:1,2017-05-01T11:00:00Z,26.5255,-82.0032,2.6,34.36,1111122 
SCCF RECON,ioos:station:SCCF:13:1,2017-05-01T12:00:00Z,26.5255,-82.0032,2.63,34.99,1111122 
SCCF RECON,ioos:station:SCCF:13:1,2017-05-01T13:00:00Z,26.5255,-82.0032,2.645,35.18,1111122 
SCCF RECON,ioos:station:SCCF:13:1,2017-05-01T14:00:00Z,26.5255,-82.0032,2.607,35.16,1111122 
SCCF RECON,ioos:station:SCCF:13:1,2017-05-01T15:00:00Z,26.5255,-82.0032,2.578,35.06,1111122 
SCCF RECON,ioos:station:SCCF:13:1,2017-05-01T16:00:00Z,26.5255,-82.0032,2.579,34.86,1111122 
SCCF RECON,ioos:station:SCCF:13:1,2017-05-01T17:00:00Z,26.5255,-82.0032,2.572,34.97,1111122 
SCCF RECON,ioos:station:SCCF:13:1,2017-05-01T18:00:00Z,26.5255,-82.0032,2.619,34.96,1111122 
SCCF RECON,ioos:station:SCCF:13:1,2017-05-01T19:00:00Z,26.5255,-82.0032,2.691,35.05,1111122 
SCCF RECON,ioos:station:SCCF:13:1,2017-05-01T20:00:00Z,26.5255,-82.0032,2.73,35.08,1111122 
SCCF RECON,ioos:station:SCCF:13:1,2017-05-01T21:00:00Z,26.5255,-82.0032,2.751,35.11,1111122 
SCCF RECON,ioos:station:SCCF:13:1,2017-05-01T22:00:00Z,26.5255,-82.0032,2.75,35.49,1111122 
SCCF RECON,ioos:station:SCCF:13:1,2017-05-01T23:00:00Z,26.5255,-82.0032,2.71,35.55,1111122 
SCCF RECON,ioos:station:SCCF:13:1,2017-05-02T00:00:00Z,26.5255,-82.0032,2.64,35.43,1111122 
SCCF RECON,ioos:station:SCCF:13:1,2017-05-02T01:00:00Z,26.5255,-82.0032,2.54,35.22,1111122 
SCCF RECON,ioos:station:SCCF:13:1,2017-05-02T02:00:00Z,26.5255,-82.0032,2.452,35.08,1111122 
SCCF RECON,ioos:station:SCCF:13:1,2017-05-02T03:00:00Z,26.5255,-82.0032,2.37,34.49,1111122 
SCCF RECON,ioos:station:SCCF:13:1,2017-05-02T04:00:00Z,26.5255,-82.0032,2.3,33.84,1111122 
SCCF RECON,ioos:station:SCCF:13:1,2017-05-02T05:00:00Z,26.5255,-82.0032,2.24,32.75,1111122 
SCCF RECON,ioos:station:SCCF:13:1,2017-05-02T06:00:00Z,26.5255,-82.0032,2.214,31.54,1111122 
SCCF RECON,ioos:station:SCCF:13:1,2017-05-02T07:00:00Z,26.5255,-82.0032,2.28,31.23,1111122 
SCCF RECON,ioos:station:SCCF:13:1,2017-05-02T08:00:00Z,26.5255,-82.0032,2.37,30.79,1111122 
SCCF RECON,ioos:station:SCCF:13:1,2017-05-02T09:00:00Z,26.5255,-82.0032,2.46,30.95,1111122 
SCCF RECON,ioos:station:SCCF:13:1,2017-05-02T10:00:00Z,26.5255,-82.0032,2.51,32.7,1111122 
SCCF RECON,ioos:station:SCCF:13:1,2017-05-02T11:00:00Z,26.5255,-82.0032,2.61,33.09,1111122 
SCCF RECON,ioos:station:SCCF:13:1,2017-05-02T12:00:00Z,26.5255,-82.0032,2.62,34.43,1111122 
SCCF RECON,ioos:station:SCCF:13:1,2017-05-02T13:00:00Z,26.5255,-82.0032,2.61,34.61,1111122 
SCCF RECON,ioos:station:SCCF:13:1,2017-05-02T14:00:00Z,26.5255,-82.0032,2.597,34.73,1111122 
SCCF RECON,ioos:station:SCCF:13:1,2017-05-02T15:00:00Z,26.5255,-82.0032,2.586,34.67,1111122 
SCCF RECON,ioos:station:SCCF:13:1,2017-05-02T16:00:00Z,26.5255,-82.0032,2.56,34.63,1111122 
SCCF RECON,ioos:station:SCCF:13:1,2017-05-02T17:00:00Z,26.5255,-82.0032,2.54,34.6,1111122 
SCCF RECON,ioos:station:SCCF:13:1,2017-05-02T18:00:00Z,26.5255,-82.0032,2.54,34.36,1111122 
SCCF RECON,ioos:station:SCCF:13:1,2017-05-02T19:00:00Z,26.5255,-82.0032,2.561,34.42,1111122 
SCCF RECON,ioos:station:SCCF:13:1,2017-05-02T20:00:00Z,26.5255,-82.0032,2.602,34.21,1111122 
SCCF RECON,ioos:station:SCCF:13:1,2017-05-02T21:00:00Z,26.5255,-82.0032,2.64,34.12,1111122 
SCCF RECON,ioos:station:SCCF:13:1,2017-05-02T22:00:00Z,26.5255,-82.0032,2.67,34.07,1111122 
SCCF RECON,ioos:station:SCCF:13:1,2017-05-02T23:00:00Z,26.5255,-82.0032,2.67,34.19,1111122 
SCCF RECON,ioos:station:SCCF:13:1,2017-05-03T00:00:00Z,26.5255,-82.0032,2.67,34.23,1111122 
SCCF RECON,ioos:station:SCCF:13:1,2017-05-03T01:00:00Z,26.5255,-82.0032,2.65,34.27,1111122 
SCCF RECON,ioos:station:SCCF:13:1,2017-05-03T02:00:00Z,26.5255,-82.0032,2.57,33.99,1111122 
SCCF RECON,ioos:station:SCCF:13:1,2017-05-03T03:00:00Z,26.5255,-82.0032,2.47,33.64,1111122 
SCCF RECON,ioos:station:SCCF:13:1,2017-05-03T04:00:00Z,26.5255,-82.0032,2.38,33.25,1111122 
SCCF RECON,ioos:station:SCCF:13:1,2017-05-03T05:00:00Z,26.5255,-82.0032,2.29,32.59,1111122 
SCCF RECON,ioos:station:SCCF:13:1,2017-05-03T06:00:00Z,26.5255,-82.0032,2.21,31.21,1111122 
SCCF RECON,ioos:station:SCCF:13:1,2017-05-03T07:00:00Z,26.5255,-82.0032,2.2,30.42,1111122 
SCCF RECON,ioos:station:SCCF:13:1,2017-05-03T08:00:00Z,26.5255,-82.0032,2.23,30.02,1111122 
SCCF RECON,ioos:station:SCCF:13:1,2017-05-03T09:00:00Z,26.5255,-82.0032,2.34,29.94,1111122 
SCCF RECON,ioos:station:SCCF:13:1,2017-05-03T10:00:00Z,26.5255,-82.0032,2.4,30.33,1111122 
SCCF RECON,ioos:station:SCCF:13:1,2017-05-03T11:00:00Z,26.5255,-82.0032,2.45,31.72,1111122 
SCCF RECON,ioos:station:SCCF:13:1,2017-05-03T12:00:00Z,26.5255,-82.0032,2.51,31.63,1111122 
SCCF RECON,ioos:station:SCCF:13:1,2017-05-03T13:00:00Z,26.5255,-82.0032,2.561,32.81,1111122 
SCCF RECON,ioos:station:SCCF:13:1,2017-05-03T14:00:00Z,26.5255,-82.0032,2.579,33.6,1111122 
SCCF RECON,ioos:station:SCCF:13:1,2017-05-03T15:00:00Z,26.5255,-82.0032,2.57,34.0,1111122 
SCCF RECON,ioos:station:SCCF:13:1,2017-05-03T16:00:00Z,26.5255,-82.0032,2.53,34.11,1111122 
SCCF RECON,ioos:station:SCCF:13:1,2017-05-03T17:00:00Z,26.5255,-82.0032,2.481,34.21,1111122 
SCCF RECON,ioos:station:SCCF:13:1,2017-05-03T18:00:00Z,26.5255,-82.0032,2.43,33.74,1111122 
SCCF RECON,ioos:station:SCCF:13:1,2017-05-03T19:00:00Z,26.5255,-82.0032,2.39,32.72,1111122 
SCCF RECON,ioos:station:SCCF:13:1,2017-05-03T20:00:00Z,26.5255,-82.0032,2.408,31.69,1111122 
SCCF RECON,ioos:station:SCCF:13:1,2017-05-03T21:00:00Z,26.5255,-82.0032,2.48,31.41,1111122 
SCCF RECON,ioos:station:SCCF:13:1,2017-05-03T22:00:00Z,26.5255,-82.0032,2.54,32.46,1111122 
SCCF RECON,ioos:station:SCCF:13:1,2017-05-03T23:00:00Z,26.5255,-82.0032,2.58,33.26,1111122 
SCCF RECON,ioos:station:SCCF:13:1,2017-05-04T00:00:00Z,26.5255,-82.0032,2.6,33.11,1111122 
SCCF RECON,ioos:station:SCCF:13:1,2017-05-04T01:00:00Z,26.5255,-82.0032,2.63,33.53,1111122 
SCCF RECON,ioos:station:SCCF:13:1,2017-05-04T02:00:00Z,26.5255,-82.0032,2.64,33.88,1111122 
SCCF RECON,ioos:station:SCCF:13:1,2017-05-04T03:00:00Z,26.5255,-82.0032,2.61,34.17,1111122 
SCCF RECON,ioos:station:SCCF:13:1,2017-05-04T04:00:00Z,26.5255,-82.0032,2.512,34.03,1111122 
SCCF RECON,ioos:station:SCCF:13:1,2017-05-04T05:00:00Z,26.5255,-82.0032,2.41,33.02,1111122 
SCCF RECON,ioos:station:SCCF:13:1,2017-05-04T06:00:00Z,26.5255,-82.0032,2.339,32.58,1111122 
SCCF RECON,ioos:station:SCCF:13:1,2017-05-04T07:00:00Z,26.5255,-82.0032,2.26,31.48,1111122 
SCCF RECON,ioos:station:SCCF:13:1,2017-05-04T08:00:00Z,26.5255,-82.0032,2.229,30.41,1111122 
SCCF RECON,ioos:station:SCCF:13:1,2017-05-04T09:00:00Z,26.5255,-82.0032,2.26,29.6,1111122 
SCCF RECON,ioos:station:SCCF:13:1,2017-05-04T10:00:00Z,26.5255,-82.0032,2.36,29.04,1111122 
SCCF RECON,ioos:station:SCCF:13:1,2017-05-04T11:00:00Z,26.5255,-82.0032,2.44,29.79,1111122 
SCCF RECON,ioos:station:SCCF:13:1,2017-05-04T12:00:00Z,26.5255,-82.0032,2.53,31.59,1111122 
SCCF RECON,ioos:station:SCCF:13:1,2017-05-04T13:00:00Z,26.5255,-82.0032,2.591,32.74,1111122 
SCCF RECON,ioos:station:SCCF:13:1,2017-05-04T14:00:00Z,26.5255,-82.0032,2.62,34.24,1111122 
SCCF RECON,ioos:station:SCCF:13:1,2017-05-04T15:00:00Z,26.5255,-82.0032,2.679,34.63,1111122 
SCCF RECON,ioos:station:SCCF:13:1,2017-05-04T16:00:00Z,26.5255,-82.0032,2.711,34.69,1111122 
SCCF RECON,ioos:station:SCCF:13:1,2017-05-04T17:00:00Z,26.5255,-82.0032,2.62,34.71,1111122 
SCCF RECON,ioos:station:SCCF:13:1,2017-05-04T18:00:00Z,26.5255,-82.0032,2.51,34.64,1111122 
SCCF RECON,ioos:station:SCCF:13:1,2017-05-04T19:00:00Z,26.5255,-82.0032,2.48,34.66,1111122 
SCCF RECON,ioos:station:SCCF:13:1,2017-05-04T20:00:00Z,26.5255,-82.0032,2.436,34.39,1111122 
SCCF RECON,ioos:station:SCCF:13:1,2017-05-04T21:00:00Z,26.5255,-82.0032,2.432,34.22,1111122 
SCCF RECON,ioos:station:SCCF:13:1,2017-05-04T22:00:00Z,26.5255,-82.0032,2.479,34.21,1111122 
SCCF RECON,ioos:station:SCCF:13:1,2017-05-04T23:00:00Z,26.5255,-82.0032,2.55,33.98,1111122 
SCCF RECON,ioos:station:SCCF:13:1,2017-05-05T00:00:00Z,26.5255,-82.0032,2.61,34.39,1111122 
SCCF RECON,ioos:station:SCCF:13:1,2017-05-05T01:00:00Z,26.5255,-82.0032,2.611,34.36,1111122 
SCCF RECON,ioos:station:SCCF:13:1,2017-05-05T02:00:00Z,26.5255,-82.0032,2.592,34.14,1111122 
SCCF RECON,ioos:station:SCCF:13:1,2017-05-05T03:00:00Z,26.5255,-82.0032,2.563,34.14,1111122 
SCCF RECON,ioos:station:SCCF:13:1,2017-05-05T04:00:00Z,26.5255,-82.0032,2.521,34.18,1111122 
SCCF RECON,ioos:station:SCCF:13:1,2017-05-05T05:00:00Z,26.5255,-82.0032,2.486,33.98,1111122 
SCCF RECON,ioos:station:SCCF:13:1,2017-05-05T06:00:00Z,26.5255,-82.0032,2.453,34.05,1111122 
SCCF RECON,ioos:station:SCCF:13:1,2017-05-05T07:00:00Z,26.5255,-82.0032,2.408,34.04,1111122 
SCCF RECON,ioos:station:SCCF:13:1,2017-05-05T08:00:00Z,26.5255,-82.0032,2.347,33.51,1111122 
SCCF RECON,ioos:station:SCCF:13:1,2017-05-05T09:00:00Z,26.5255,-82.0032,2.27,32.71,1111122 
SCCF RECON,ioos:station:SCCF:13:1,2017-05-05T10:00:00Z,26.5255,-82.0032,2.368,32.24,1111122 
SCCF RECON,ioos:station:SCCF:13:1,2017-05-05T11:00:00Z,26.5255,-82.0032,2.442,32.23,1111122 
SCCF RECON,ioos:station:SCCF:13:1,2017-05-05T12:00:00Z,26.5255,-82.0032,2.49,32.55,1111122 
SCCF RECON,ioos:station:SCCF:13:1,2017-05-05T13:00:00Z,26.5255,-82.0032,2.6,32.81,1111122 
SCCF RECON,ioos:station:SCCF:13:1,2017-05-05T14:00:00Z,26.5255,-82.0032,2.655,33.53,1111122 
SCCF RECON,ioos:station:SCCF:13:1,2017-05-05T15:00:00Z,26.5255,-82.0032,2.68,34.02,1111122 
SCCF RECON,ioos:station:SCCF:13:1,2017-05-05T16:00:00Z,26.5255,-82.0032,2.66,34.26,1111122 
SCCF RECON,ioos:station:SCCF:13:1,2017-05-05T17:00:00Z,26.5255,-82.0032,2.559,34.43,1111122 
SCCF RECON,ioos:station:SCCF:13:1,2017-05-05T18:00:00Z,26.5255,-82.0032,2.465,34.3,1111122 
SCCF RECON,ioos:station:SCCF:13:1,2017-05-05T19:00:00Z,26.5255,-82.0032,2.407,33.82,1111122 
SCCF RECON,ioos:station:SCCF:13:1,2017-05-05T20:00:00Z,26.5255,-82.0032,2.339,33.59,1111122 
SCCF RECON,ioos:station:SCCF:13:1,2017-05-05T21:00:00Z,26.5255,-82.0032,2.28,32.83,1111122 
SCCF RECON,ioos:station:SCCF:13:1,2017-05-05T22:00:00Z,26.5255,-82.0032,2.245,31.84,1111122 
SCCF RECON,ioos:station:SCCF:13:1,2017-05-05T23:00:00Z,26.5255,-82.0032,2.306,31.33,1111122 
SCCF RECON,ioos:station:SCCF:13:1,2017-05-06T00:00:00Z,26.5255,-82.0032,2.388,31.05,1111122 
SCCF RECON,ioos:station:SCCF:13:1,2017-05-06T01:00:00Z,26.5255,-82.0032,2.451,31.61,1111122 
SCCF RECON,ioos:station:SCCF:13:1,2017-05-06T02:00:00Z,26.5255,-82.0032,2.51,32.09,1111122 
SCCF RECON,ioos:station:SCCF:13:1,2017-05-06T03:00:00Z,26.5255,-82.0032,2.576,32.35,1111122 
SCCF RECON,ioos:station:SCCF:13:1,2017-05-06T04:00:00Z,26.5255,-82.0032,2.613,33.04,1111122 
SCCF RECON,ioos:station:SCCF:13:1,2017-05-06T05:00:00Z,26.5255,-82.0032,2.6,33.59,1111122 
SCCF RECON,ioos:station:SCCF:13:1,2017-05-06T06:00:00Z,26.5255,-82.0032,2.492,33.68,1111122 
SCCF RECON,ioos:station:SCCF:13:1,2017-05-06T07:00:00Z,26.5255,-82.0032,2.394,33.64,1111122 
SCCF RECON,ioos:station:SCCF:13:1,2017-05-06T08:00:00Z,26.5255,-82.0032,2.331,33.31,1111122 
SCCF RECON,ioos:station:SCCF:13:1,2017-05-06T09:00:00Z,26.5255,-82.0032,2.28,32.62,1111122 
SCCF RECON,ioos:station:SCCF:13:1,2017-05-06T10:00:00Z,26.5255,-82.0032,2.217,31.66,1111122 
SCCF RECON,ioos:station:SCCF:13:1,2017-05-06T11:00:00Z,26.5255,-82.0032,2.19,30.4,1111122 
SCCF RECON,ioos:station:SCCF:13:1,2017-05-06T12:00:00Z,26.5255,-82.0032,2.25,30.07,1111122 
SCCF RECON,ioos:station:SCCF:13:1,2017-05-06T13:00:00Z,26.5255,-82.0032,2.389,29.95,1111122 
SCCF RECON,ioos:station:SCCF:13:1,2017-05-06T14:00:00Z,26.5255,-82.0032,2.48,30.95,1111122 
SCCF RECON,ioos:station:SCCF:13:1,2017-05-06T15:00:00Z,26.5255,-82.0032,2.52,31.87,1111122 
SCCF RECON,ioos:station:SCCF:13:1,2017-05-06T16:00:00Z,26.5255,-82.0032,2.531,32.3,1111122 
SCCF RECON,ioos:station:SCCF:13:1,2017-05-06T17:00:00Z,26.5255,-82.0032,2.453,33.13,1111122 
SCCF RECON,ioos:station:SCCF:13:1,2017-05-06T18:00:00Z,26.5255,-82.0032,2.364,33.09,1111122 
SCCF RECON,ioos:station:SCCF:13:1,2017-05-06T19:00:00Z,26.5255,-82.0032,2.298,32.19,1111122 
SCCF RECON,ioos:station:SCCF:13:1,2017-05-06T20:00:00Z,26.5255,-82.0032,2.24,31.51,1111122 
SCCF RECON,ioos:station:SCCF:13:1,2017-05-06T21:00:00Z,26.5255,-82.0032,2.19,31.06,1111122 
SCCF RECON,ioos:station:SCCF:13:1,2017-05-06T22:00:00Z,26.5255,-82.0032,2.16,30.09,1111122 
SCCF RECON,ioos:station:SCCF:13:1,2017-05-06T23:00:00Z,26.5255,-82.0032,2.179,29.34,1111122 
SCCF RECON,ioos:station:SCCF:13:1,2017-05-07T00:00:00Z,26.5255,-82.0032,2.246,28.72,1111122 
SCCF RECON,ioos:station:SCCF:13:1,2017-05-07T01:00:00Z,26.5255,-82.0032,2.35,29.31,1111122 
SCCF RECON,ioos:station:SCCF:13:1,2017-05-07T02:00:00Z,26.5255,-82.0032,2.43,30.51,1111122 
SCCF RECON,ioos:station:SCCF:13:1,2017-05-07T03:00:00Z,26.5255,-82.0032,2.49,30.98,1111122 
SCCF RECON,ioos:station:SCCF:13:1,2017-05-07T04:00:00Z,26.5255,-82.0032,2.54,31.75,1111122 
SCCF RECON,ioos:station:SCCF:13:1,2017-05-07T05:00:00Z,26.5255,-82.0032,2.54,32.24,1111122 
SCCF RECON,ioos:station:SCCF:13:1,2017-05-07T06:00:00Z,26.5255,-82.0032,2.49,32.6,1111122 
SCCF RECON,ioos:station:SCCF:13:1,2017-05-07T07:00:00Z,26.5255,-82.0032,2.41,32.79,1111122 
SCCF RECON,ioos:station:SCCF:13:1,2017-05-07T08:00:00Z,26.5255,-82.0032,2.34,32.22,1111122 
SCCF RECON,ioos:station:SCCF:13:1,2017-05-07T09:00:00Z,26.5255,-82.0032,2.28,31.44,1111122 
SCCF RECON,ioos:station:SCCF:13:1,2017-05-07T10:00:00Z,26.5255,-82.0032,2.25,30.71,1111122 
SCCF RECON,ioos:station:SCCF:13:1,2017-05-07T11:00:00Z,26.5255,-82.0032,2.26,29.87,1111122 
SCCF RECON,ioos:station:SCCF:13:1,2017-05-07T12:00:00Z,26.5255,-82.0032,2.34,29.18,1111122 
SCCF RECON,ioos:station:SCCF:13:1,2017-05-07T13:00:00Z,26.5255,-82.0032,2.46,29.66,1111122 
SCCF RECON,ioos:station:SCCF:13:1,2017-05-07T14:00:00Z,26.5255,-82.0032,2.539,31.21,1111122 
SCCF RECON,ioos:station:SCCF:13:1,2017-05-07T15:00:00Z,26.5255,-82.0032,2.59,31.85,1111122 
SCCF RECON,ioos:station:SCCF:13:1,2017-05-07T16:00:00Z,26.5255,-82.0032,2.63,32.79,1111122 
SCCF RECON,ioos:station:SCCF:13:1,2017-05-07T17:00:00Z,26.5255,-82.0032,2.599,33.22,1111122 
SCCF RECON,ioos:station:SCCF:13:1,2017-05-07T18:00:00Z,26.5255,-82.0032,2.5,33.5,1111122 
SCCF RECON,ioos:station:SCCF:13:1,2017-05-07T19:00:00Z,26.5255,-82.0032,2.381,33.42,1111122 
SCCF RECON,ioos:station:SCCF:13:1,2017-05-07T20:00:00Z,26.5255,-82.0032,2.294,32.71,1111122 
SCCF RECON,ioos:station:SCCF:13:1,2017-05-07T21:00:00Z,26.5255,-82.0032,2.229,32.4,1111122 
SCCF RECON,ioos:station:SCCF:13:1,2017-05-07T22:00:00Z,26.5255,-82.0032,2.16,31.4,1111122 
SCCF RECON,ioos:station:SCCF:13:1,2017-05-07T23:00:00Z,26.5255,-82.0032,2.119,30.23,1111122 
SCCF RECON,ioos:station:SCCF:13:1,2017-05-08T00:00:00Z,26.5255,-82.0032,2.13,29.4,1111122 
SCCF RECON,ioos:station:SCCF:13:1,2017-05-08T01:00:00Z,26.5255,-82.0032,2.225,28.79,1111122 
SCCF RECON,ioos:station:SCCF:13:1,2017-05-08T02:00:00Z,26.5255,-82.0032,2.32,28.47,1111122 
SCCF RECON,ioos:station:SCCF:13:1,2017-05-08T03:00:00Z,26.5255,-82.0032,2.4,30.14,1111122 
SCCF RECON,ioos:station:SCCF:13:1,2017-05-08T04:00:00Z,26.5255,-82.0032,2.46,30.67,1111122 
SCCF RECON,ioos:station:SCCF:13:1,2017-05-08T05:00:00Z,26.5255,-82.0032,2.49,31.7,1111122 
SCCF RECON,ioos:station:SCCF:13:1,2017-05-08T06:00:00Z,26.5255,-82.0032,2.47,32.16,1111122 
SCCF RECON,ioos:station:SCCF:13:1,2017-05-08T07:00:00Z,26.5255,-82.0032,2.4,32.57,1111122 
SCCF RECON,ioos:station:SCCF:13:1,2017-05-08T08:00:00Z,26.5255,-82.0032,2.329,32.3,1111122 
SCCF RECON,ioos:station:SCCF:13:1,2017-05-08T09:00:00Z,26.5255,-82.0032,2.27,31.19,1111122 
SCCF RECON,ioos:station:SCCF:13:1,2017-05-08T10:00:00Z,26.5255,-82.0032,2.22,30.28,1111122 
SCCF RECON,ioos:station:SCCF:13:1,2017-05-08T11:00:00Z,26.5255,-82.0032,2.19,29.07,1111122 
SCCF RECON,ioos:station:SCCF:13:1,2017-05-08T12:00:00Z,26.5255,-82.0032,2.24,28.54,1111122 
SCCF RECON,ioos:station:SCCF:13:1,2017-05-08T13:00:00Z,26.5255,-82.0032,2.36,27.91,1111122 
SCCF RECON,ioos:station:SCCF:13:1,2017-05-08T14:00:00Z,26.5255,-82.0032,2.46,30.23,1111122 
SCCF RECON,ioos:station:SCCF:13:1,2017-05-08T15:00:00Z,26.5255,-82.0032,2.531,31.41,1111122 
SCCF RECON,ioos:station:SCCF:13:1,2017-05-08T16:00:00Z,26.5255,-82.0032,2.59,32.59,1111122 
SCCF RECON,ioos:station:SCCF:13:1,2017-05-08T17:00:00Z,26.5255,-82.0032,2.61,33.37,1111122 
SCCF RECON,ioos:station:SCCF:13:1,2017-05-08T18:00:00Z,26.5255,-82.0032,2.57,33.78,1111122 
SCCF RECON,ioos:station:SCCF:13:1,2017-05-08T19:00:00Z,26.5255,-82.0032,2.45,33.85,1111122 
SCCF RECON,ioos:station:SCCF:13:1,2017-05-08T20:00:00Z,26.5255,-82.0032,2.354,33.81,1111122 
SCCF RECON,ioos:station:SCCF:13:1,2017-05-08T21:00:00Z,26.5255,-82.0032,2.27,33.06,1111122 
SCCF RECON,ioos:station:SCCF:13:1,2017-05-08T22:00:00Z,26.5255,-82.0032,2.207,32.8,1111122 
SCCF RECON,ioos:station:SCCF:13:1,2017-05-08T23:00:00Z,26.5255,-82.0032,2.147,31.72,1111122 
SCCF RECON,ioos:station:SCCF:13:1,2017-05-09T00:00:00Z,26.5255,-82.0032,2.111,30.25,1111122 
SCCF RECON,ioos:station:SCCF:13:1,2017-05-09T01:00:00Z,26.5255,-82.0032,2.16,29.47,1111122 
SCCF RECON,ioos:station:SCCF:13:1,2017-05-09T02:00:00Z,26.5255,-82.0032,2.29,28.83,1111122 
SCCF RECON,ioos:station:SCCF:13:1,2017-05-09T03:00:00Z,26.5255,-82.0032,2.398,30.2,1111122 
SCCF RECON,ioos:station:SCCF:13:1,2017-05-09T04:00:00Z,26.5255,-82.0032,2.45,31.47,1111122 
SCCF RECON,ioos:station:SCCF:13:1,2017-05-09T05:00:00Z,26.5255,-82.0032,2.51,31.99,1111122 
SCCF RECON,ioos:station:SCCF:13:1,2017-05-09T06:00:00Z,26.5255,-82.0032,2.53,32.35,1111122 
SCCF RECON,ioos:station:SCCF:13:1,2017-05-09T07:00:00Z,26.5255,-82.0032,2.47,32.99,1111122 
SCCF RECON,ioos:station:SCCF:13:1,2017-05-09T08:00:00Z,26.5255,-82.0032,2.38,33.32,1111122 
SCCF RECON,ioos:station:SCCF:13:1,2017-05-09T09:00:00Z,26.5255,-82.0032,2.32,32.95,1111122 
SCCF RECON,ioos:station:SCCF:13:1,2017-05-09T10:00:00Z,26.5255,-82.0032,2.28,31.98,1111122 
SCCF RECON,ioos:station:SCCF:13:1,2017-05-09T11:00:00Z,26.5255,-82.0032,2.25,30.75,1111122 
SCCF RECON,ioos:station:SCCF:13:1,2017-05-09T12:00:00Z,26.5255,-82.0032,2.25,29.8,1111122 
SCCF RECON,ioos:station:SCCF:13:1,2017-05-09T13:00:00Z,26.5255,-82.0032,2.351,29.09,1111122 
SCCF RECON,ioos:station:SCCF:13:1,2017-05-09T14:00:00Z,26.5255,-82.0032,2.47,30.31,1111122 
SCCF RECON,ioos:station:SCCF:13:1,2017-05-09T15:00:00Z,26.5255,-82.0032,2.549,-9999.0,1111122 
SCCF RECON,ioos:station:SCCF:13:1,2017-05-09T16:00:00Z,26.5255,-82.0032,2.601,-9999.0,1111122 
SCCF RECON,ioos:station:SCCF:13:1,2017-05-09T17:00:00Z,26.5255,-82.0032,2.639,-9999.0,1111122 
SCCF RECON,ioos:station:SCCF:13:1,2017-05-09T18:00:00Z,26.5255,-82.0032,2.63,-9999.0,1111122 
SCCF RECON,ioos:station:SCCF:13:1,2017-05-09T19:00:00Z,26.5255,-82.0032,2.55,-9999.0,1111122 
SCCF RECON,ioos:station:SCCF:13:1,2017-05-09T20:00:00Z,26.5255,-82.0032,2.439,-9999.0,1111122 
SCCF RECON,ioos:station:SCCF:13:1,2017-05-09T21:00:00Z,26.5255,-82.0032,2.345,-9999.0,1111122 
SCCF RECON,ioos:station:SCCF:13:1,2017-05-09T22:00:00Z,26.5255,-82.0032,2.27,-9999.0,1111122 
SCCF RECON,ioos:station:SCCF:13:1,2017-05-09T23:00:00Z,26.5255,-82.0032,2.189,-9999.0,1111122 
SCCF RECON,ioos:station:SCCF:13:1,2017-05-10T00:00:00Z,26.5255,-82.0032,2.12,-9999.0,1111122 
SCCF RECON,ioos:station:SCCF:13:1,2017-05-10T01:00:00Z,26.5255,-82.0032,2.114,-9999.0,1111122 
SCCF RECON,ioos:station:SCCF:13:1,2017-05-10T02:00:00Z,26.5255,-82.0032,2.224,-9999.0,1111122 
SCCF RECON,ioos:station:SCCF:13:1,2017-05-10T03:00:00Z,26.5255,-82.0032,2.35,-9999.0,1111122 
SCCF RECON,ioos:station:SCCF:13:1,2017-05-10T04:00:00Z,26.5255,-82.0032,2.43,-9999.0,1111122 
SCCF RECON,ioos:station:SCCF:13:1,2017-05-10T05:00:00Z,26.5255,-82.0032,2.48,-9999.0,1111122 
SCCF RECON,ioos:station:SCCF:13:1,2017-05-10T06:00:00Z,26.5255,-82.0032,2.52,-9999.0,1111122 
SCCF RECON,ioos:station:SCCF:13:1,2017-05-10T07:00:00Z,26.5255,-82.0032,2.51,-9999.0,1111122 
SCCF RECON,ioos:station:SCCF:13:1,2017-05-10T08:00:00Z,26.5255,-82.0032,2.44,-9999.0,1111122 
SCCF RECON,ioos:station:SCCF:13:1,2017-05-10T09:00:00Z,26.5255,-82.0032,2.37,-9999.0,1111122 
SCCF RECON,ioos:station:SCCF:13:1,2017-05-10T10:00:00Z,26.5255,-82.0032,2.32,-9999.0,1111122 
SCCF RECON,ioos:station:SCCF:13:1,2017-05-10T11:00:00Z,26.5255,-82.0032,2.29,-9999.0,1111122 
SCCF RECON,ioos:station:SCCF:13:1,2017-05-10T12:00:00Z,26.5255,-82.0032,2.26,-9999.0,1111122 
SCCF RECON,ioos:station:SCCF:13:1,2017-05-10T13:00:00Z,26.5255,-82.0032,2.304,-9999.0,1111122 
SCCF RECON,ioos:station:SCCF:13:1,2017-05-10T14:00:00Z,26.5255,-82.0032,2.43,-9999.0,1111122 
SCCF RECON,ioos:station:SCCF:13:1,2017-05-10T15:00:00Z,26.5255,-82.0032,2.526,-9999.0,1111122 
SCCF RECON,ioos:station:SCCF:13:1,2017-05-10T16:00:00Z,26.5255,-82.0032,2.59,-9999.0,1111122 
SCCF RECON,ioos:station:SCCF:13:1,2017-05-10T17:00:00Z,26.5255,-82.0032,2.643,-9999.0,1111122 
SCCF RECON,ioos:station:SCCF:13:1,2017-05-10T18:00:00Z,26.5255,-82.0032,2.67,-9999.0,1111122 
SCCF RECON,ioos:station:SCCF:13:1,2017-05-10T19:00:00Z,26.5255,-82.0032,2.62,-9999.0,1111122 
SCCF RECON,ioos:station:SCCF:13:1,2017-05-10T20:00:00Z,26.5255,-82.0032,2.5,-9999.0,1111122 
SCCF RECON,ioos:station:SCCF:13:1,2017-05-10T21:00:00Z,26.5255,-82.0032,2.401,-9999.0,1111122 
SCCF RECON,ioos:station:SCCF:13:1,2017-05-10T22:00:00Z,26.5255,-82.0032,2.33,-9999.0,1111122 
SCCF RECON,ioos:station:SCCF:13:1,2017-05-10T23:00:00Z,26.5255,-82.0032,2.25,-9999.0,1111122 
SCCF RECON,ioos:station:SCCF:13:1,2017-05-11T00:00:00Z,26.5255,-82.0032,2.175,-9999.0,1111122 
SCCF RECON,ioos:station:SCCF:13:1,2017-05-11T01:00:00Z,26.5255,-82.0032,2.14,-9999.0,1111122 
SCCF RECON,ioos:station:SCCF:13:1,2017-05-11T02:00:00Z,26.5255,-82.0032,2.18,-9999.0,1111122 
SCCF RECON,ioos:station:SCCF:13:1,2017-05-11T03:00:00Z,26.5255,-82.0032,2.33,-9999.0,1111122 
SCCF RECON,ioos:station:SCCF:13:1,2017-05-11T04:00:00Z,26.5255,-82.0032,2.43,-9999.0,1111122 
SCCF RECON,ioos:station:SCCF:13:1,2017-05-11T05:00:00Z,26.5255,-82.0032,2.48,-9999.0,1111122 
SCCF RECON,ioos:station:SCCF:13:1,2017-05-11T06:00:00Z,26.5255,-82.0032,2.539,-9999.0,1111122 
SCCF RECON,ioos:station:SCCF:13:1,2017-05-11T07:00:00Z,26.5255,-82.0032,2.56,-9999.0,1111122 
SCCF RECON,ioos:station:SCCF:13:1,2017-05-11T08:00:00Z,26.5255,-82.0032,2.53,-9999.0,1111122 
SCCF RECON,ioos:station:SCCF:13:1,2017-05-11T09:00:00Z,26.5255,-82.0032,2.46,-9999.0,1111122 
SCCF RECON,ioos:station:SCCF:13:1,2017-05-11T10:00:00Z,26.5255,-82.0032,2.4,-9999.0,1111122 
SCCF RECON,ioos:station:SCCF:13:1,2017-05-11T11:00:00Z,26.5255,-82.0032,2.36,-9999.0,1111122 
SCCF RECON,ioos:station:SCCF:13:1,2017-05-11T12:00:00Z,26.5255,-82.0032,2.323,-9999.0,1111122 
SCCF RECON,ioos:station:SCCF:13:1,2017-05-11T13:00:00Z,26.5255,-82.0032,2.32,-9999.0,1111122 
SCCF RECON,ioos:station:SCCF:13:1,2017-05-11T14:00:00Z,26.5255,-82.0032,2.38,-9999.0,1111122 
SCCF RECON,ioos:station:SCCF:13:1,2017-05-11T15:00:00Z,26.5255,-82.0032,2.497,-9999.0,1111122 
SCCF RECON,ioos:station:SCCF:13:1,2017-05-11T16:00:00Z,26.5255,-82.0032,2.58,-9999.0,1111122 
SCCF RECON,ioos:station:SCCF:13:1,2017-05-11T17:00:00Z,26.5255,-82.0032,2.639,-9999.0,1111122 